Weather History for Meacham, OR

Change the Weather History Date:

Tuesday, May 1, 2012

  Actual Average Record
Temperature  
Mean Temperature 38 °F -  
Max Temperature 46 °F 54 °F 86 °F (1998)
Min Temperature 30 °F 29 °F 19 °F (2013)
Degree Days  
Heating Degree Days 27    
Moisture  
Dew Point 29 °F    
Average Humidity 74    
Maximum Humidity 89    
Minimum Humidity 51    
Precipitation  
Precipitation 0.07 in - - ()
Sea Level Pressure  
Sea Level Pressure 29.90 in    
Wind  
Wind Speed 3 mph (West)    
Max Wind Speed 6 mph    
Max Gust Speed -    
Visibility 8 miles    
Events Fog , Rain , Snow    
Averages and records for this station are not official NWS values.
T = Trace of Precipitation, MM = Missing Value Source: NWS Daily Summary

Daily Weather History Graph

Daily Weather History Graph

Search for Another Location

Airport:

Trip Planner

Search our weather history database for the weather conditions in past years. The results will help you decide how hot, cold, wet, or windy it might be!

Date:

Astronomy

May. 01, 2012 Rise Set
Actual Time 5:40 AM PDT 8:01 PM PDT
Civil Twilight 5:08 AM PDT 8:34 PM PDT
Nautical Twilight 4:27 AM PDT 9:15 PM PDT
Astronomical Twilight 3:41 AM PDT 10:01 PM PDT
Moon 2:56 PM PDT (5/1) 2:55 AM PDT (5/1)
Length of Visible Light 15h 26m
Length of Day
14h 20m
Waxing Gibbous, 75% of the Moon is Illuminated
May 1
Waxing Gibbous
May 5
Full
May 12
Last Quarter
May 20
New
May 28
First Quarter

Hourly Weather History & Observations

Time (PDT) Temp. Windchill Dew Point Humidity Pressure Visibility Wind Dir Wind Speed Gust Speed Precip Events Conditions
12:56 AM 36.0 °F 33.3 °F 32.0 °F 86% 29.88 in 10.0 mi Variable 3.5 mph - N/A   Overcast
1:10 AM 35.6 °F 32.8 °F 32.0 °F 87% 29.88 in 10.0 mi Variable 3.5 mph - N/A   Overcast
1:56 AM - - - N/A% - 10.0 mi Variable 5.8 mph - N/A   Mostly Cloudy
2:56 AM 34.0 °F - 30.0 °F 85% 29.94 in 10.0 mi Calm Calm - N/A   Overcast
3:33 AM 33.8 °F 30.8 °F 30.2 °F 87% 29.91 in 10.0 mi Variable 3.5 mph - N/A   Overcast
3:56 AM 33.1 °F 30.0 °F 28.9 °F 85% 29.95 in 10.0 mi Variable 3.5 mph - N/A   Overcast
4:56 AM 33.1 °F 30.0 °F 27.0 °F 78% 29.96 in 10.0 mi Variable 3.5 mph - N/A   Overcast
5:22 AM 32.0 °F 28.7 °F 26.6 °F 80% 29.91 in 10.0 mi West 3.5 mph - N/A   Scattered Clouds
5:56 AM 30.0 °F - 26.1 °F 85% 29.96 in 10.0 mi Calm Calm - N/A   Clear
6:56 AM 34.0 °F 31.0 °F 27.0 °F 75% 29.95 in 10.0 mi Variable 3.5 mph - N/A   Clear
7:56 AM 36.0 °F - 27.0 °F 70% 29.96 in 10.0 mi Calm Calm - N/A   Overcast
8:56 AM 36.0 °F 33.3 °F 27.0 °F 70% 29.97 in 10.0 mi West 3.5 mph - N/A   Overcast
9:56 AM 37.0 °F 34.5 °F 27.0 °F 67% 29.97 in 10.0 mi Variable 3.5 mph - N/A   Overcast
10:12 AM 37.4 °F 33.8 °F 28.4 °F 70% 29.93 in 10.0 mi Variable 4.6 mph - N/A   Overcast
10:19 AM 37.4 °F - 28.4 °F 70% 29.93 in 10.0 mi Calm Calm - N/A   Overcast
10:56 AM 39.0 °F 36.8 °F 27.0 °F 62% 29.96 in 10.0 mi Variable 3.5 mph - N/A   Overcast
11:56 AM 39.0 °F - 27.0 °F 62% 29.96 in 10.0 mi Calm Calm - N/A   Overcast
12:56 PM 41.0 °F 39.0 °F 27.0 °F 57% 29.93 in 10.0 mi Variable 3.5 mph - N/A   Overcast
1:56 PM 43.0 °F 41.3 °F 28.0 °F 56% 29.91 in 10.0 mi West 3.5 mph - N/A   Overcast
2:56 PM 46.0 °F 44.8 °F 30.0 °F 54% 29.88 in 10.0 mi Variable 3.5 mph - N/A   Mostly Cloudy
3:56 PM 46.0 °F 44.8 °F 28.9 °F 51% 29.87 in 10.0 mi Variable 3.5 mph - N/A   Clear
4:56 PM 45.0 °F 43.5 °F 28.9 °F 53% 29.87 in 10.0 mi Variable 3.5 mph - N/A   Scattered Clouds
5:56 PM 43.0 °F 41.3 °F 28.9 °F 58% 29.87 in 10.0 mi Variable 3.5 mph - N/A   Scattered Clouds
6:56 PM 42.1 °F - 28.0 °F 58% 29.87 in 10.0 mi Calm Calm - N/A   Overcast
7:56 PM 39.9 °F - 28.9 °F 65% 29.86 in 10.0 mi Calm Calm - N/A   Overcast
8:56 PM 37.9 °F - 30.0 °F 73% 29.88 in 10.0 mi Calm Calm - 0.00 in Rain Light Rain
9:43 PM 37.4 °F 32.8 °F 28.4 °F 70% 29.85 in 10.0 mi WNW 5.8 mph - 0.00 in   Overcast
10:06 PM 35.6 °F 31.7 °F 30.2 °F 81% 29.86 in 1.8 mi Variable 4.6 mph - 0.00 in Snow Light Snow
10:28 PM 33.8 °F 29.6 °F 30.2 °F 87% 29.86 in 1.0 mi Variable 4.6 mph - 0.01 in Snow Light Snow
10:36 PM 33.8 °F - 30.2 °F 87% 29.86 in 0.5 mi Calm Calm - 0.03 in Fog , Snow Snow
10:56 PM 33.1 °F - 30.0 °F 89% 29.91 in 5.0 mi Calm Calm - 0.04 in Snow Light Snow
11:05 PM 33.8 °F 29.6 °F 30.2 °F 87% 29.86 in 1.8 mi Variable 4.6 mph - 0.01 in Snow Light Snow
11:19 PM 33.8 °F 30.8 °F 30.2 °F 87% 29.86 in 3.0 mi Variable 3.5 mph - 0.02 in Snow Light Snow
11:34 PM 33.8 °F 30.8 °F 30.2 °F 87% 29.86 in 3.0 mi Variable 3.5 mph - 0.02 in Snow Light Snow
11:44 PM 33.8 °F 30.8 °F 30.2 °F 87% 29.87 in 3.0 mi Variable 3.5 mph - 0.03 in Snow Light Snow
11:56 PM 33.1 °F - 30.0 °F 89% 29.91 in 7.0 mi Calm Calm - 0.03 in Snow Light Snow